When you browse on this site, cookies collect data to enhance your experience and personalize the content and advertising you see.
Visit our Privacy Policy to learn more. By continuing to use the site, you agree to this use of cookies and data.
  • In Romania
  • List of Countries
  • For 7 days
  • Water Temperature
  • Weather Map
  • Weather Widgets
  • user-avatar
    Login

    Hourly Weather Ghanzi

    Today, 11 December, Wednesday

    Time Temperature Precipitation Wind Pressure Humidity
    00:00 +14°C° 0 mm 4 mps 715 mmHg 41%
    01:00 +13°C° 0 mm 4 mps 715 mmHg 43%
    02:00 +13°C° 0 mm 4 mps 715 mmHg 45%
    03:00 +12°C° 0 mm 4 mps 715 mmHg 48%
    04:00 +12°C° 0 mm 4 mps 715 mmHg 50%
    05:00 +12°C° 0 mm 3 mps 715 mmHg 51%
    06:00 +12°C° 0 mm 3 mps 716 mmHg 51%
    07:00 +13°C° 0 mm 2 mps 716 mmHg 49%
    08:00 +15°C° 0 mm 2 mps 717 mmHg 44%
    09:00 +17°C° 0 mm 2 mps 717 mmHg 38%
    10:00 +19°C° 0 mm 2 mps 717 mmHg 32%
    11:00 +22°C° 0 mm 1 mps 716 mmHg 28%
    12:00 +23°C° 0 mm 1 mps 715 mmHg 25%
    13:00 +23°C° 0 mm 0 mps 714 mmHg 21%
    14:00 +23°C° 0 mm 0 mps 714 mmHg 21%
    15:00 +24°C° 0 mm 1 mps 714 mmHg 21%
    16:00 +24°C° 0 mm 1 mps 714 mmHg 20%
    17:00 +22°C° 0 mm 1 mps 714 mmHg 24%
    18:00 +19°C° 0 mm 1 mps 714 mmHg 28%
    19:00 +16°C° 0 mm 1 mps 714 mmHg 32%
    20:00 +17°C° 0 mm 2 mps 714 mmHg 31%
    21:00 +18°C° 0 mm 3 mps 715 mmHg 29%
    22:00 +18°C° 0 mm 4 mps 716 mmHg 27%
    23:00 +16°C° 0 mm 6 mps 716 mmHg 29%

    Tomorrow, 12 December, Thursday

    Time Temperature Precipitation Wind Pressure Humidity
    00:00 +15°C° 0 mm 7 mps 716 mmHg 31%
    01:00 +15°C° 0 mm 9 mps 716 mmHg 34%
    02:00 +12°C° 0 mm 8 mps 717 mmHg 33%
    03:00 +11°C° 0 mm 7 mps 717 mmHg 33%
    04:00 +10°C° 0 mm 6 mps 717 mmHg 33%
    05:00 +9°C° 0 mm 6 mps 717 mmHg 33%
    06:00 +9°C° 0 mm 5 mps 718 mmHg 33%
    07:00 +8°C° 0 mm 5 mps 718 mmHg 33%
    08:00 +10°C° 0 mm 6 mps 718 mmHg 30%
    09:00 +13°C° 0 mm 6 mps 718 mmHg 26%
    10:00 +15°C° 0 mm 7 mps 719 mmHg 23%
    11:00 +17°C° 0 mm 7 mps 718 mmHg 20%
    12:00 +18°C° 0 mm 7 mps 717 mmHg 17%
    13:00 +20°C° 0 mm 7 mps 716 mmHg 14%
    14:00 +20°C° 0 mm 6 mps 716 mmHg 15%
    15:00 +19°C° 0 mm 6 mps 716 mmHg 16%
    16:00 +19°C° 0 mm 6 mps 716 mmHg 17%
    17:00 +16°C° 0 mm 5 mps 717 mmHg 21%
    18:00 +14°C° 0 mm 5 mps 717 mmHg 24%
    19:00 +12°C° 0 mm 4 mps 717 mmHg 28%
    20:00 +12°C° 0 mm 4 mps 717 mmHg 31%
    21:00 +11°C° 0 mm 4 mps 718 mmHg 33%
    22:00 +10°C° 0 mm 4 mps 718 mmHg 36%
    23:00 +10°C° 0 mm 4 mps 718 mmHg 39%

    Day after tomorrow, 13 December, Friday

    Time Temperature Precipitation Wind Pressure Humidity
    00:00 +9°C° 0 mm 3 mps 717 mmHg 41%
    01:00 +9°C° 0 mm 3 mps 717 mmHg 44%
    02:00 +8°C° 0 mm 3 mps 717 mmHg 48%
    03:00 +8°C° 0 mm 3 mps 717 mmHg 52%
    04:00 +7°C° 0 mm 2 mps 717 mmHg 55%
    05:00 +7°C° 0 mm 2 mps 717 mmHg 55%
    06:00 +8°C° 0 mm 2 mps 718 mmHg 55%
    07:00 +8°C° 0 mm 2 mps 718 mmHg 55%
    08:00 +10°C° 0 mm 2 mps 718 mmHg 48%
    09:00 +13°C° 0 mm 1 mps 718 mmHg 42%
    10:00 +15°C° 0 mm 1 mps 718 mmHg 36%
    11:00 +16°C° 0 mm 1 mps 718 mmHg 31%
    12:00 +19°C° 0 mm 1 mps 717 mmHg 27%
    13:00 +20°C° 0 mm 1 mps 716 mmHg 22%
    14:00 +19°C° 0 mm 2 mps 716 mmHg 21%
    15:00 +19°C° 0 mm 2 mps 716 mmHg 20%
    16:00 +19°C° 0 mm 2 mps 715 mmHg 20%
    17:00 +17°C° 0 mm 2 mps 715 mmHg 23%
    18:00 +16°C° 0 mm 3 mps 716 mmHg 26%
    19:00 +13°C° 0 mm 3 mps 716 mmHg 29%
    20:00 +12°C° 0 mm 3 mps 716 mmHg 30%
    21:00 +13°C° 0 mm 2 mps 716 mmHg 31%
    22:00 +12°C° 0 mm 2 mps 716 mmHg 33%
    23:00 +10°C° 0 mm 2 mps 716 mmHg 34%

    14 December, Saturday

    Time Temperature Precipitation Wind Pressure Humidity
    00:00 +10°C° 0 mm 2 mps 716 mmHg 36%
    01:00 +9°C° 0 mm 2 mps 716 mmHg 38%
    02:00 +9°C° 0 mm 2 mps 716 mmHg 38%
    03:00 +9°C° 0 mm 2 mps 716 mmHg 39%
    04:00 +9°C° 0 mm 2 mps 716 mmHg 40%
    05:00 +9°C° 0 mm 2 mps 717 mmHg 39%
    06:00 +9°C° 0 mm 2 mps 717 mmHg 38%
    07:00 +10°C° 0 mm 2 mps 718 mmHg 38%
    08:00 +13°C° 0 mm 1 mps 718 mmHg 33%
    09:00 +15°C° 0 mm 1 mps 718 mmHg 28%
    10:00 +19°C° 0 mm 1 mps 718 mmHg 23%
    11:00 +20°C° 0 mm 1 mps 718 mmHg 19%
    12:00 +20°C° 0 mm 2 mps 717 mmHg 16%
    13:00 +23°C° 0 mm 2 mps 716 mmHg 13%
    14:00 +21°C° 0 mm 2 mps 716 mmHg 12%
    15:00 +21°C° 0 mm 2 mps 716 mmHg 12%
    16:00 +21°C° 0 mm 2 mps 716 mmHg 11%
    17:00 +19°C° 0 mm 2 mps 716 mmHg 13%
    18:00 +16°C° 0 mm 2 mps 716 mmHg 15%
    19:00 +14°C° 0 mm 2 mps 716 mmHg 17%
    20:00 +14°C° 0 mm 2 mps 717 mmHg 18%
    21:00 +13°C° 0 mm 2 mps 717 mmHg 18%
    22:00 +13°C° 0 mm 2 mps 717 mmHg 18%
    23:00 +12°C° 0 mm 3 mps 717 mmHg 18%

    15 December, Sunday

    Time Temperature Precipitation Wind Pressure Humidity
    00:00 +12°C° 0 mm 3 mps 717 mmHg 18%
    01:00 +12°C° 0 mm 4 mps 717 mmHg 17%
    02:00 +12°C° 0 mm 4 mps 717 mmHg 19%
    03:00 +11°C° 0 mm 4 mps 717 mmHg 20%
    04:00 +11°C° 0 mm 4 mps 717 mmHg 22%
    05:00 +11°C° 0 mm 4 mps 718 mmHg 24%
    06:00 +11°C° 0 mm 3 mps 718 mmHg 26%
    07:00 +11°C° 0 mm 3 mps 719 mmHg 28%
    08:00 +14°C° 0 mm 4 mps 719 mmHg 30%
    09:00 +16°C° 0 mm 6 mps 719 mmHg 31%
    10:00 +18°C° 0 mm 7 mps 720 mmHg 32%
    11:00 +20°C° 0 mm 7 mps 719 mmHg 30%
    12:00 +21°C° 0 mm 7 mps 718 mmHg 28%
    13:00 +22°C° 0 mm 7 mps 718 mmHg 25%
    14:00 +22°C° 0 mm 7 mps 718 mmHg 26%
    15:00 +21°C° 0 mm 6 mps 717 mmHg 26%
    16:00 +21°C° 0 mm 6 mps 717 mmHg 26%
    17:00 +19°C° 0 mm 6 mps 717 mmHg 30%
    18:00 +16°C° 0 mm 5 mps 718 mmHg 34%
    19:00 +14°C° 0 mm 5 mps 718 mmHg 38%
    20:00 +14°C° 0 mm 5 mps 718 mmHg 41%
    21:00 +13°C° 0 mm 5 mps 719 mmHg 45%
    22:00 +11°C° 0 mm 6 mps 719 mmHg 48%
    23:00 +10°C° 0 mm 5 mps 719 mmHg 54%

    16 December, Monday

    Time Temperature Precipitation Wind Pressure Humidity
    00:00 +10°C° 0 mm 5 mps 719 mmHg 59%
    01:00 +9°C° 0 mm 5 mps 718 mmHg 64%
    02:00 +10°C° 0 mm 4 mps 718 mmHg 67%
    03:00 +8°C° 0 mm 4 mps 718 mmHg 70%
    04:00 +8°C° 0 mm 4 mps 718 mmHg 73%
    05:00 +8°C° 0 mm 4 mps 719 mmHg 74%
    06:00 +9°C° 0 mm 3 mps 719 mmHg 76%
    07:00 +9°C° 0 mm 3 mps 720 mmHg 77%
    08:00 +11°C° 0 mm 4 mps 720 mmHg 68%
    09:00 +13°C° 0 mm 5 mps 720 mmHg 59%
    10:00 +16°C° 0 mm 5 mps 720 mmHg 50%
    11:00 +17°C° 0 mm 5 mps 720 mmHg 44%
    12:00 +19°C° 0 mm 5 mps 719 mmHg 37%
    13:00 +20°C° 0 mm 5 mps 719 mmHg 30%
    14:00 +20°C° 0 mm 5 mps 718 mmHg 29%
    15:00 +20°C° 0 mm 5 mps 718 mmHg 29%
    16:00 +19°C° 0 mm 5 mps 718 mmHg 28%
    17:00 +17°C° 0 mm 5 mps 718 mmHg 32%
    18:00 +15°C° 0 mm 5 mps 718 mmHg 36%
    19:00 +14°C° 0 mm 4 mps 718 mmHg 40%
    20:00 +13°C° 0 mm 4 mps 718 mmHg 42%
    21:00 +12°C° 0 mm 4 mps 718 mmHg 44%
    22:00 +12°C° 0 mm 4 mps 719 mmHg 46%
    23:00 +11°C° 0 mm 4 mps 718 mmHg 49%
    Show more